GFSSGP_prec_precacc_030.txt.gz
Total_Precipitation_Accumulation
0.00 0.04 0.16 0.29 0.98 0.41 0.20 0.18 0.11 0.04 0.03 0.04 0.02 0.14 0.16 0.12 0.09 0.10 0.02 0.03 0.08 0.08 0.50 1.11 0.87 0.57 0.31 0.20 0.16 0.11 0.08 0.07 0.03 0.01 0.01 0.00 0.00 0.00 0.00 0.00 0.00 0.02 0.00 0.01 0.00 0.00 0.00 0.02 0.10
0.00 0.05 0.38 1.31 0.74 0.28 0.17 0.06 0.12 0.07 0.01 0.01 0.02 0.05 0.02 0.03 0.00 0.01 0.08 0.07 0.04 0.02 0.21 0.47 0.60 0.36 0.19 0.09 0.06 0.06 0.05 0.03 0.02 0.03 0.00 0.00 0.00 0.00 0.00 0.00 0.00 0.00 0.00 0.00 0.00 0.00 0.01 0.05 0.13
0.02 0.16 1.91 1.25 0.11 0.27 0.06 0.06 0.05 0.05 0.02 0.03 0.03 0.07 0.00 0.02 0.01 0.00 0.00 0.00 0.02 0.03 0.11 0.20 0.20 0.22 0.12 0.10 0.04 0.05 0.04 0.01 0.02 0.01 0.00 0.00 0.01 0.00 0.00 0.00 0.00 0.00 0.00 0.00 0.00 0.00 0.00 0.01 0.02
0.18 1.37 2.18 0.82 0.13 0.03 0.03 0.05 0.05 0.01 0.00 0.02 0.02 0.00 0.00 0.00 0.01 0.00 0.00 0.02 0.02 0.03 0.07 0.11 0.11 0.10 0.12 0.08 0.05 0.02 0.00 0.00 0.00 0.00 0.02 0.02 0.00 0.00 0.00 0.00 0.00 0.00 0.00 0.00 0.00 0.00 0.00 0.00 0.00
0.27 0.57 0.49 0.52 0.07 0.01 0.00 0.02 0.06 0.02 0.01 0.00 0.00 0.01 0.01 0.00 0.00 0.00 0.00 0.01 0.02 0.02 0.03 0.06 0.17 0.10 0.07 0.06 0.03 0.02 0.00 0.00 0.00 0.01 0.02 0.02 0.01 0.00 0.00 0.00 0.00 0.00 0.00 0.00 0.00 0.00 0.00 0.01 0.00
0.96 0.24 0.14 0.04 0.03 0.01 0.02 0.00 0.01 0.01 0.01 0.01 0.00 0.00 0.02 0.00 0.00 0.01 0.00 0.01 0.01 0.01 0.01 0.03 0.06 0.06 0.04 0.03 0.02 0.00 0.00 0.01 0.03 0.07 0.09 0.08 0.04 0.00 0.00 0.00 0.00 0.00 0.00 0.00 0.01 0.00 0.00 0.00 0.03
0.29 0.03 0.02 0.01 0.03 0.03 0.03 0.01 0.00 0.00 0.00 0.00 0.00 0.00 0.03 0.00 0.00 0.00 0.00 0.00 0.01 0.01 0.00 0.02 0.03 0.05 0.02 0.04 0.02 0.00 0.02 0.02 0.04 0.07 0.10 0.08 0.06 0.01 0.00 0.04 0.03 0.00 0.00 0.01 0.09 0.06 0.02 0.03 0.08
0.63 0.02 0.03 0.01 0.02 0.02 0.01 0.01 0.00 0.00 0.00 0.00 0.00 0.00 0.01 0.00 0.00 0.00 0.00 0.00 0.01 0.02 0.02 0.01 0.04 0.04 0.06 0.08 0.09 0.02 0.04 0.04 0.03 0.03 0.04 0.09 0.09 0.06 0.03 0.13 0.10 0.02 0.08 0.12 0.12 0.16 0.10 0.09 0.10
0.05 0.01 0.01 0.01 0.00 0.00 0.00 0.00 0.00 0.00 0.00 0.00 0.03 0.00 0.00 0.00 0.00 0.00 0.00 0.01 0.02 0.03 0.02 0.01 0.01 0.06 0.05 0.06 0.06 0.12 0.04 0.02 0.03 0.03 0.06 0.16 0.15 0.07 0.09 0.18 0.08 0.08 0.06 0.16 0.15 0.15 0.19 0.27 0.17
0.03 0.07 0.01 0.02 0.00 0.00 0.00 0.00 0.00 0.00 0.00 0.00 0.00 0.00 0.00 0.00 0.00 0.00 0.00 0.00 0.02 0.00 0.01 0.05 0.04 0.01 0.01 0.03 0.10 0.11 0.10 0.11 0.08 0.09 0.09 0.08 0.09 0.08 0.12 0.09 0.09 0.06 0.06 0.25 0.23 0.29 0.23 0.15 0.06
0.01 0.03 0.00 0.00 0.00 0.00 0.00 0.00 0.00 0.00 0.00 0.00 0.00 0.00 0.00 0.00 0.00 0.00 0.00 0.00 0.00 0.00 0.00 0.00 0.00 0.00 0.01 0.06 0.05 0.04 0.01 0.04 0.04 0.03 0.01 0.04 0.08 0.21 0.13 0.11 0.19 0.07 0.05 0.10 0.12 0.15 0.04 0.06 0.01
0.00 0.00 0.00 0.00 0.00 0.00 0.00 0.00 0.00 0.00 0.00 0.00 0.00 0.00 0.00 0.00 0.00 0.00 0.00 0.00 0.00 0.00 0.00 0.00 0.00 0.00 0.02 0.05 0.06 0.05 0.02 0.01 0.01 0.02 0.00 0.09 0.25 0.12 0.16 0.11 0.12 0.12 0.03 0.04 0.04 0.04 0.05 0.04 0.07
0.00 0.00 0.00 0.00 0.00 0.00 0.01 0.00 0.00 0.00 0.00 0.00 0.00 0.00 0.00 0.00 0.00 0.00 0.00 0.00 0.00 0.00 0.00 0.00 0.00 0.00 0.01 0.00 0.00 0.02 0.03 0.05 0.03 0.05 0.00 0.10 0.29 0.29 0.20 0.17 0.16 0.11 0.05 0.01 0.04 0.07 0.05 0.04 0.00
0.00 0.00 0.00 0.00 0.00 0.00 0.00 0.00 0.00 0.00 0.00 0.00 0.00 0.00 0.00 0.00 0.00 0.00 0.00 0.00 0.00 0.00 0.00 0.00 0.01 0.05 0.00 0.01 0.15 0.08 0.10 0.12 0.06 0.05 0.00 0.06 0.22 0.38 0.20 0.22 0.18 0.08 0.04 0.04 0.04 0.03 0.05 0.01 0.00
0.00 0.00 0.00 0.00 0.00 0.00 0.01 0.04 0.00 0.00 0.00 0.00 0.00 0.00 0.00 0.00 0.00 0.00 0.00 0.00 0.00 0.00 0.00 0.00 0.00 0.08 0.03 0.05 0.25 0.09 0.06 0.05 0.01 0.03 0.08 0.30 0.33 0.29 0.22 0.34 0.19 0.08 0.05 0.14 0.11 0.10 0.06 0.00 0.00
0.00 0.00 0.00 0.00 0.00 0.00 0.00 0.01 0.00 0.00 0.00 0.00 0.00 0.00 0.00 0.00 0.00 0.00 0.00 0.00 0.00 0.00 0.00 0.00 0.00 0.00 0.00 0.06 0.09 0.01 0.00 0.02 0.10 0.13 0.14 0.21 0.32 0.22 0.19 0.43 0.22 0.07 0.08 0.14 0.16 0.10 0.07 0.00 0.00
0.00 0.00 0.00 0.00 0.00 0.00 0.00 0.08 0.00 0.00 0.00 0.00 0.00 0.00 0.00 0.00 0.00 0.00 0.00 0.00 0.00 0.00 0.00 0.00 0.00 0.01 0.05 0.07 0.13 0.18 0.16 0.19 0.11 0.05 0.14 0.20 0.19 0.16 0.16 0.26 0.15 0.10 0.14 0.15 0.13 0.06 0.02 0.00 0.00
0.00 0.00 0.00 0.00 0.00 0.00 0.00 0.10 0.02 0.00 0.00 0.00 0.00 0.00 0.00 0.00 0.00 0.00 0.00 0.00 0.00 0.00 0.00 0.00 0.00 0.02 0.13 0.31 0.34 0.23 0.10 0.09 0.04 0.08 0.17 0.12 0.16 0.11 0.15 0.16 0.16 0.10 0.14 0.12 0.11 0.01 0.00 0.00 0.00
0.00 0.00 0.00 0.00 0.00 0.00 0.00 0.01 0.04 0.00 0.00 0.00 0.00 0.00 0.00 0.00 0.00 0.00 0.00 0.00 0.00 0.00 0.00 0.00 0.00 0.01 0.16 0.07 0.04 0.03 0.02 0.02 0.02 0.08 0.05 0.10 0.10 0.11 0.17 0.10 0.11 0.07 0.04 0.04 0.01 0.00 0.00 0.00 0.00
0.00 0.00 0.00 0.00 0.00 0.00 0.00 0.00 0.00 0.00 0.00 0.00 0.00 0.00 0.00 0.00 0.00 0.00 0.00 0.00 0.00 0.00 0.00 0.00 0.00 0.00 0.03 0.03 0.03 0.02 0.01 0.00 0.01 0.02 0.05 0.05 0.03 0.07 0.06 0.04 0.03 0.02 0.02 0.00 0.00 0.00 0.00 0.00 0.00
0.00 0.00 0.00 0.00 0.00 0.00 0.00 0.00 0.00 0.00 0.00 0.00 0.00 0.00 0.00 0.00 0.00 0.00 0.00 0.00 0.00 0.00 0.00 0.00 0.00 0.00 0.00 0.02 0.03 0.08 0.08 0.04 0.02 0.01 0.02 0.01 0.01 0.02 0.02 0.04 0.02 0.02 0.00 0.00 0.00 0.00 0.00 0.01 0.01
0.00 0.00 0.00 0.00 0.00 0.00 0.00 0.00 0.00 0.00 0.00 0.00 0.00 0.00 0.00 0.00 0.00 0.00 0.00 0.00 0.00 0.00 0.00 0.00 0.00 0.00 0.00 0.02 0.02 0.04 0.01 0.01 0.01 0.00 0.00 0.00 0.00 0.00 0.00 0.01 0.01 0.00 0.00 0.00 0.00 0.00 0.00 0.00 0.00
0.00 0.00 0.00 0.00 0.00 0.00 0.00 0.00 0.00 0.00 0.00 0.00 0.00 0.00 0.00 0.00 0.00 0.00 0.00 0.00 0.00 0.00 0.00 0.00 0.00 0.00 0.00 0.00 0.00 0.02 0.00 0.00 0.00 0.00 0.00 0.00 0.00 0.00 0.00 0.00 0.00 0.00 0.00 0.00 0.00 0.00 0.00 0.00 0.00
0.00 0.00 0.00 0.00 0.00 0.00 0.00 0.00 0.00 0.00 0.00 0.00 0.00 0.00 0.00 0.00 0.00 0.00 0.00 0.00 0.00 0.00 0.00 0.00 0.00 0.00 0.00 0.00 0.00 0.01 0.01 0.00 0.00 0.00 0.00 0.00 0.00 0.00 0.00 0.00 0.00 0.00 0.00 0.00 0.00 0.00 0.00 0.00 0.00
0.00 0.00 0.00 0.00 0.00 0.00 0.00 0.00 0.00 0.00 0.00 0.00 0.00 0.00 0.00 0.00 0.00 0.00 0.00 0.00 0.00 0.00 0.00 0.00 0.00 0.00 0.00 0.00 0.00 0.00 0.00 0.00 0.00 0.00 0.00 0.00 0.00 0.00 0.00 0.00 0.00 0.00 0.00 0.00 0.00 0.00 0.00 0.00 0.00
0.00 0.00 0.00 0.00 0.00 0.00 0.00 0.00 0.00 0.00 0.00 0.00 0.00 0.00 0.00 0.00 0.00 0.00 0.00 0.00 0.00 0.00 0.00 0.00 0.00 0.00 0.00 0.00 0.00 0.00 0.00 0.00 0.00 0.00 0.00 0.00 0.00 0.00 0.00 0.00 0.00 0.00 0.00 0.00 0.00 0.00 0.00 0.00 0.00
0.00 0.00 0.00 0.00 0.00 0.00 0.00 0.00 0.00 0.00 0.00 0.00 0.00 0.00 0.00 0.00 0.00 0.00 0.00 0.00 0.00 0.00 0.00 0.00 0.00 0.00 0.00 0.00 0.00 0.00 0.00 0.00 0.00 0.00 0.00 0.00 0.00 0.00 0.00 0.00 0.00 0.00 0.00 0.00 0.00 0.00 0.00 0.00 0.00
0.00 0.00 0.00 0.00 0.00 0.00 0.00 0.00 0.00 0.00 0.00 0.00 0.00 0.00 0.00 0.00 0.00 0.00 0.00 0.00 0.00 0.00 0.00 0.00 0.00 0.00 0.00 0.00 0.00 0.00 0.00 0.00 0.00 0.00 0.00 0.00 0.00 0.00 0.00 0.00 0.00 0.00 0.00 0.00 0.00 0.00 0.00 0.00 0.00
0.00 0.00 0.00 0.00 0.00 0.00 0.00 0.00 0.00 0.00 0.00 0.00 0.00 0.00 0.00 0.00 0.00 0.00 0.00 0.00 0.00 0.00 0.00 0.00 0.00 0.00 0.00 0.00 0.00 0.00 0.00 0.00 0.00 0.00 0.00 0.00 0.00 0.00 0.00 0.00 0.00 0.00 0.00 0.00 0.00 0.00 0.00 0.00 0.00
0.00 0.00 0.00 0.00 0.00 0.00 0.00 0.00 0.00 0.00 0.00 0.00 0.00 0.00 0.00 0.00 0.00 0.00 0.00 0.00 0.00 0.00 0.00 0.00 0.00 0.00 0.00 0.00 0.00 0.00 0.00 0.00 0.00 0.00 0.00 0.00 0.00 0.00 0.00 0.00 0.00 0.00 0.00 0.00 0.00 0.00 0.00 0.00 0.00

GFSSGP_prec_precacc_033.txt.gz
Total_Precipitation_Accumulation
0.00 0.04 0.17 0.30 0.99 0.42 0.22 0.20 0.11 0.04 0.03 0.04 0.02 0.14 0.16 0.12 0.09 0.10 0.03 0.28 0.13 0.08 0.52 1.17 1.05 0.66 0.34 0.22 0.16 0.11 0.08 0.07 0.03 0.01 0.01 0.00 0.00 0.00 0.00 0.00 0.00 0.02 0.02 0.08 0.05 0.06 0.01 0.02 0.10
0.00 0.05 0.40 1.31 0.74 0.29 0.17 0.07 0.12 0.07 0.01 0.01 0.02 0.05 0.02 0.03 0.00 0.01 0.09 0.12 0.04 0.02 0.21 0.56 0.74 0.41 0.21 0.09 0.06 0.06 0.05 0.03 0.02 0.03 0.00 0.00 0.00 0.00 0.00 0.00 0.00 0.00 0.01 0.01 0.01 0.01 0.01 0.05 0.13
0.02 0.16 1.92 1.25 0.11 0.27 0.06 0.06 0.05 0.05 0.02 0.03 0.03 0.07 0.00 0.02 0.01 0.01 0.00 0.00 0.02 0.03 0.12 0.26 0.22 0.24 0.12 0.10 0.04 0.05 0.04 0.01 0.02 0.01 0.00 0.00 0.01 0.00 0.00 0.00 0.00 0.01 0.01 0.01 0.00 0.00 0.00 0.01 0.02
0.18 1.37 2.18 0.86 0.16 0.03 0.03 0.05 0.05 0.01 0.00 0.02 0.02 0.00 0.01 0.00 0.01 0.00 0.00 0.02 0.02 0.03 0.09 0.13 0.11 0.10 0.12 0.08 0.05 0.02 0.00 0.00 0.00 0.00 0.02 0.02 0.00 0.00 0.00 0.00 0.00 0.02 0.01 0.00 0.00 0.00 0.00 0.02 0.05
0.27 0.57 0.49 0.53 0.07 0.01 0.00 0.02 0.06 0.02 0.01 0.00 0.00 0.01 0.01 0.01 0.00 0.00 0.00 0.01 0.02 0.02 0.04 0.06 0.17 0.10 0.07 0.06 0.03 0.02 0.00 0.00 0.00 0.01 0.02 0.02 0.01 0.00 0.00 0.00 0.00 0.02 0.02 0.00 0.00 0.00 0.02 0.02 0.04
0.96 0.24 0.14 0.04 0.03 0.02 0.02 0.00 0.01 0.01 0.01 0.01 0.00 0.00 0.03 0.00 0.00 0.01 0.00 0.01 0.01 0.01 0.01 0.03 0.06 0.06 0.04 0.03 0.02 0.00 0.00 0.01 0.03 0.07 0.09 0.08 0.04 0.00 0.00 0.00 0.00 0.01 0.00 0.00 0.01 0.00 0.00 0.00 0.03
0.29 0.03 0.02 0.01 0.03 0.03 0.03 0.01 0.00 0.00 0.00 0.00 0.00 0.00 0.03 0.01 0.00 0.00 0.00 0.00 0.01 0.01 0.00 0.02 0.03 0.05 0.02 0.04 0.02 0.00 0.02 0.02 0.04 0.07 0.11 0.11 0.06 0.01 0.00 0.04 0.03 0.00 0.00 0.01 0.09 0.06 0.02 0.03 0.08
0.63 0.02 0.03 0.01 0.02 0.02 0.01 0.01 0.00 0.00 0.00 0.00 0.00 0.00 0.01 0.00 0.00 0.00 0.00 0.00 0.01 0.02 0.02 0.01 0.04 0.04 0.06 0.08 0.09 0.02 0.04 0.04 0.03 0.04 0.10 0.13 0.09 0.06 0.03 0.13 0.10 0.03 0.09 0.12 0.12 0.16 0.10 0.09 0.10
0.05 0.01 0.01 0.01 0.00 0.00 0.00 0.00 0.00 0.00 0.00 0.00 0.03 0.00 0.00 0.00 0.00 0.00 0.00 0.01 0.03 0.03 0.02 0.01 0.01 0.06 0.05 0.06 0.06 0.12 0.04 0.02 0.03 0.05 0.12 0.21 0.16 0.07 0.09 0.18 0.09 0.11 0.09 0.16 0.15 0.15 0.19 0.27 0.17
0.03 0.07 0.01 0.02 0.00 0.00 0.00 0.00 0.00 0.00 0.00 0.00 0.00 0.00 0.00 0.00 0.00 0.00 0.00 0.00 0.02 0.01 0.01 0.05 0.04 0.01 0.01 0.03 0.10 0.11 0.10 0.11 0.08 0.09 0.11 0.09 0.09 0.08 0.12 0.10 0.14 0.12 0.10 0.26 0.27 0.31 0.23 0.15 0.06
0.01 0.03 0.00 0.00 0.00 0.00 0.00 0.00 0.00 0.00 0.00 0.00 0.00 0.00 0.00 0.00 0.00 0.00 0.00 0.00 0.00 0.00 0.00 0.00 0.00 0.00 0.01 0.06 0.05 0.04 0.01 0.04 0.04 0.03 0.01 0.04 0.08 0.21 0.13 0.11 0.19 0.07 0.06 0.10 0.13 0.16 0.04 0.06 0.01
0.00 0.00 0.00 0.00 0.00 0.00 0.00 0.00 0.00 0.00 0.00 0.00 0.00 0.00 0.00 0.00 0.00 0.00 0.00 0.00 0.00 0.00 0.00 0.00 0.00 0.00 0.02 0.05 0.06 0.05 0.02 0.01 0.01 0.02 0.00 0.09 0.25 0.12 0.16 0.11 0.12 0.12 0.03 0.05 0.04 0.05 0.05 0.04 0.07
0.00 0.00 0.00 0.00 0.00 0.00 0.01 0.00 0.00 0.00 0.00 0.00 0.00 0.00 0.00 0.00 0.00 0.00 0.00 0.00 0.00 0.00 0.00 0.00 0.00 0.00 0.01 0.00 0.00 0.02 0.03 0.05 0.03 0.05 0.00 0.10 0.29 0.30 0.20 0.17 0.16 0.11 0.05 0.02 0.10 0.10 0.07 0.04 0.00
0.00 0.00 0.00 0.00 0.00 0.00 0.00 0.00 0.00 0.00 0.00 0.00 0.00 0.00 0.00 0.00 0.00 0.00 0.00 0.00 0.00 0.00 0.00 0.00 0.01 0.05 0.00 0.01 0.15 0.08 0.10 0.12 0.06 0.05 0.00 0.06 0.22 0.39 0.21 0.22 0.18 0.09 0.04 0.04 0.04 0.06 0.07 0.01 0.00
0.00 0.00 0.00 0.00 0.00 0.00 0.01 0.04 0.00 0.00 0.00 0.00 0.00 0.00 0.00 0.00 0.00 0.00 0.00 0.00 0.00 0.00 0.00 0.00 0.00 0.08 0.03 0.05 0.25 0.09 0.06 0.05 0.01 0.03 0.08 0.30 0.34 0.29 0.22 0.34 0.19 0.09 0.05 0.15 0.11 0.10 0.06 0.00 0.00
0.00 0.00 0.00 0.00 0.00 0.00 0.00 0.01 0.00 0.00 0.00 0.00 0.00 0.00 0.00 0.00 0.00 0.00 0.00 0.00 0.00 0.00 0.00 0.00 0.00 0.00 0.00 0.06 0.09 0.01 0.00 0.02 0.10 0.13 0.14 0.21 0.32 0.23 0.19 0.43 0.22 0.07 0.11 0.20 0.17 0.11 0.07 0.00 0.00
0.00 0.00 0.00 0.00 0.00 0.00 0.00 0.08 0.00 0.00 0.00 0.00 0.00 0.00 0.00 0.00 0.00 0.00 0.00 0.00 0.00 0.00 0.00 0.00 0.00 0.01 0.05 0.07 0.13 0.18 0.16 0.19 0.11 0.05 0.14 0.20 0.20 0.16 0.16 0.26 0.15 0.10 0.16 0.18 0.14 0.06 0.02 0.00 0.00
0.00 0.00 0.00 0.00 0.00 0.00 0.00 0.10 0.02 0.00 0.00 0.00 0.00 0.00 0.00 0.00 0.00 0.00 0.00 0.00 0.00 0.00 0.00 0.00 0.00 0.02 0.13 0.31 0.34 0.23 0.10 0.09 0.04 0.08 0.17 0.12 0.16 0.11 0.15 0.16 0.16 0.10 0.14 0.13 0.11 0.01 0.00 0.00 0.00
0.00 0.00 0.00 0.00 0.00 0.00 0.00 0.01 0.04 0.00 0.00 0.00 0.00 0.00 0.00 0.00 0.00 0.00 0.00 0.00 0.00 0.00 0.00 0.00 0.00 0.01 0.16 0.07 0.04 0.03 0.02 0.02 0.02 0.08 0.05 0.10 0.10 0.11 0.17 0.10 0.11 0.07 0.05 0.04 0.01 0.00 0.00 0.00 0.00
0.00 0.00 0.00 0.00 0.00 0.00 0.00 0.00 0.00 0.00 0.00 0.00 0.00 0.00 0.00 0.00 0.00 0.00 0.00 0.00 0.00 0.00 0.00 0.00 0.00 0.00 0.03 0.03 0.03 0.02 0.01 0.00 0.01 0.02 0.05 0.05 0.03 0.07 0.06 0.04 0.03 0.02 0.02 0.01 0.00 0.00 0.00 0.00 0.00
0.00 0.00 0.00 0.00 0.00 0.00 0.00 0.00 0.00 0.00 0.00 0.00 0.00 0.00 0.00 0.00 0.00 0.00 0.00 0.00 0.00 0.00 0.00 0.00 0.00 0.00 0.00 0.02 0.03 0.08 0.08 0.04 0.02 0.01 0.02 0.01 0.01 0.02 0.02 0.04 0.02 0.02 0.00 0.00 0.00 0.00 0.00 0.01 0.01
0.00 0.00 0.00 0.00 0.00 0.00 0.00 0.00 0.00 0.00 0.00 0.00 0.00 0.00 0.00 0.00 0.00 0.00 0.00 0.00 0.00 0.00 0.00 0.00 0.00 0.00 0.00 0.02 0.02 0.04 0.01 0.01 0.01 0.00 0.00 0.00 0.00 0.00 0.00 0.01 0.01 0.00 0.00 0.00 0.00 0.00 0.00 0.00 0.00
0.00 0.00 0.00 0.00 0.00 0.00 0.00 0.00 0.00 0.00 0.00 0.00 0.00 0.00 0.00 0.00 0.00 0.00 0.00 0.00 0.00 0.00 0.00 0.00 0.00 0.00 0.00 0.00 0.00 0.02 0.00 0.00 0.00 0.00 0.00 0.00 0.00 0.00 0.00 0.00 0.00 0.00 0.00 0.00 0.00 0.00 0.00 0.00 0.00
0.00 0.00 0.00 0.00 0.00 0.00 0.00 0.00 0.00 0.00 0.00 0.00 0.00 0.00 0.00 0.00 0.00 0.00 0.00 0.00 0.00 0.00 0.00 0.00 0.00 0.00 0.00 0.00 0.00 0.01 0.01 0.00 0.00 0.00 0.00 0.00 0.00 0.00 0.00 0.00 0.00 0.00 0.00 0.00 0.00 0.00 0.00 0.00 0.00
0.00 0.00 0.00 0.00 0.00 0.00 0.00 0.00 0.00 0.00 0.00 0.00 0.00 0.00 0.00 0.00 0.00 0.00 0.00 0.00 0.00 0.00 0.00 0.00 0.00 0.00 0.00 0.00 0.00 0.00 0.00 0.00 0.00 0.00 0.00 0.00 0.00 0.00 0.00 0.00 0.00 0.00 0.00 0.00 0.00 0.00 0.00 0.00 0.00
0.00 0.00 0.00 0.00 0.00 0.00 0.00 0.00 0.00 0.00 0.00 0.00 0.00 0.00 0.00 0.00 0.00 0.00 0.00 0.00 0.00 0.00 0.00 0.00 0.00 0.00 0.00 0.00 0.00 0.00 0.00 0.00 0.00 0.00 0.00 0.00 0.00 0.00 0.00 0.00 0.00 0.00 0.00 0.00 0.00 0.00 0.00 0.00 0.00
0.00 0.00 0.00 0.00 0.00 0.00 0.00 0.00 0.00 0.00 0.00 0.00 0.00 0.00 0.00 0.00 0.00 0.00 0.00 0.00 0.00 0.00 0.00 0.00 0.00 0.00 0.00 0.00 0.00 0.00 0.00 0.00 0.00 0.00 0.00 0.00 0.00 0.00 0.00 0.00 0.00 0.00 0.00 0.00 0.00 0.00 0.00 0.00 0.00
0.00 0.00 0.00 0.00 0.00 0.00 0.00 0.00 0.00 0.00 0.00 0.00 0.00 0.00 0.00 0.00 0.00 0.00 0.00 0.00 0.00 0.00 0.00 0.00 0.00 0.00 0.00 0.00 0.00 0.00 0.00 0.00 0.00 0.00 0.00 0.00 0.00 0.00 0.00 0.00 0.00 0.00 0.00 0.00 0.00 0.00 0.00 0.00 0.00
0.00 0.00 0.00 0.00 0.00 0.00 0.00 0.00 0.00 0.00 0.00 0.00 0.00 0.00 0.00 0.00 0.00 0.00 0.00 0.00 0.00 0.00 0.00 0.00 0.00 0.00 0.00 0.00 0.00 0.00 0.00 0.00 0.00 0.00 0.00 0.00 0.00 0.00 0.00 0.00 0.00 0.00 0.00 0.00 0.00 0.00 0.00 0.00 0.00
0.00 0.00 0.00 0.00 0.00 0.00 0.00 0.00 0.00 0.00 0.00 0.00 0.00 0.00 0.00 0.00 0.00 0.00 0.00 0.00 0.00 0.00 0.00 0.00 0.00 0.00 0.00 0.00 0.00 0.00 0.00 0.00 0.00 0.00 0.00 0.00 0.00 0.00 0.00 0.00 0.00 0.00 0.00 0.00 0.00 0.00 0.00 0.00 0.00

GFSSGP_prec_precacc_036.txt.gz
Total_Precipitation_Accumulation
0.00 0.05 0.20 0.34 1.03 0.45 0.27 0.23 0.13 0.05 0.04 0.04 0.02 0.14 0.16 0.13 0.09 0.14 0.08 0.37 0.15 0.09 0.57 1.23 1.15 0.70 0.34 0.24 0.18 0.11 0.08 0.07 0.03 0.01 0.01 0.00 0.00 0.00 0.00 0.00 0.01 0.02 0.03 0.10 0.06 0.09 0.01 0.02 0.10
0.01 0.06 0.41 1.32 0.78 0.35 0.22 0.08 0.12 0.07 0.01 0.01 0.02 0.05 0.03 0.04 0.00 0.02 0.16 0.23 0.05 0.03 0.24 0.60 0.85 0.46 0.22 0.10 0.06 0.06 0.05 0.03 0.02 0.03 0.00 0.00 0.00 0.00 0.00 0.00 0.00 0.01 0.01 0.02 0.02 0.02 0.01 0.05 0.13
0.02 0.17 1.93 1.26 0.16 0.31 0.07 0.06 0.05 0.05 0.02 0.03 0.03 0.07 0.01 0.03 0.01 0.01 0.02 0.02 0.03 0.05 0.12 0.30 0.32 0.27 0.13 0.10 0.04 0.05 0.04 0.01 0.02 0.01 0.00 0.00 0.01 0.00 0.00 0.00 0.03 0.03 0.01 0.01 0.01 0.05 0.03 0.01 0.02
0.18 1.38 2.18 0.92 0.21 0.05 0.03 0.05 0.05 0.01 0.00 0.02 0.02 0.00 0.01 0.01 0.01 0.00 0.03 0.02 0.02 0.03 0.10 0.15 0.16 0.10 0.12 0.08 0.05 0.02 0.00 0.00 0.00 0.00 0.02 0.02 0.00 0.00 0.00 0.00 0.03 0.02 0.01 0.00 0.00 0.02 0.07 0.04 0.06
0.27 0.57 0.54 0.56 0.07 0.01 0.00 0.02 0.06 0.02 0.01 0.00 0.00 0.01 0.03 0.03 0.00 0.01 0.01 0.01 0.02 0.02 0.04 0.06 0.18 0.10 0.07 0.06 0.03 0.02 0.00 0.00 0.00 0.01 0.02 0.02 0.01 0.00 0.00 0.00 0.00 0.02 0.02 0.00 0.00 0.00 0.03 0.04 0.05
0.97 0.24 0.14 0.05 0.03 0.02 0.02 0.00 0.01 0.01 0.01 0.01 0.00 0.00 0.05 0.02 0.01 0.02 0.00 0.01 0.02 0.01 0.01 0.03 0.06 0.06 0.04 0.04 0.02 0.00 0.00 0.01 0.03 0.07 0.09 0.08 0.04 0.00 0.00 0.00 0.00 0.01 0.00 0.00 0.01 0.00 0.00 0.00 0.03
0.29 0.03 0.02 0.01 0.03 0.03 0.03 0.01 0.00 0.00 0.00 0.00 0.00 0.00 0.04 0.01 0.01 0.00 0.00 0.01 0.02 0.01 0.00 0.02 0.03 0.05 0.02 0.04 0.02 0.00 0.02 0.02 0.04 0.08 0.11 0.11 0.06 0.01 0.00 0.04 0.03 0.00 0.00 0.01 0.09 0.06 0.02 0.03 0.08
0.63 0.02 0.03 0.01 0.02 0.02 0.01 0.01 0.00 0.00 0.00 0.00 0.00 0.00 0.01 0.00 0.00 0.00 0.00 0.00 0.01 0.02 0.02 0.01 0.04 0.04 0.06 0.08 0.09 0.02 0.04 0.04 0.03 0.04 0.10 0.13 0.10 0.06 0.03 0.14 0.11 0.03 0.09 0.12 0.12 0.16 0.10 0.09 0.10
0.05 0.01 0.01 0.01 0.00 0.00 0.00 0.00 0.00 0.00 0.00 0.00 0.03 0.00 0.00 0.00 0.00 0.00 0.00 0.01 0.03 0.03 0.02 0.01 0.01 0.06 0.05 0.06 0.06 0.12 0.04 0.02 0.03 0.05 0.12 0.21 0.18 0.07 0.09 0.19 0.11 0.13 0.09 0.16 0.15 0.15 0.19 0.28 0.17
0.03 0.07 0.01 0.02 0.00 0.00 0.00 0.00 0.00 0.00 0.00 0.00 0.00 0.00 0.00 0.00 0.00 0.00 0.00 0.00 0.02 0.01 0.01 0.05 0.04 0.01 0.01 0.03 0.10 0.11 0.10 0.11 0.08 0.09 0.11 0.09 0.09 0.08 0.12 0.12 0.16 0.12 0.10 0.26 0.27 0.31 0.23 0.16 0.07
0.01 0.03 0.00 0.00 0.00 0.00 0.00 0.00 0.00 0.00 0.00 0.00 0.00 0.00 0.00 0.00 0.00 0.00 0.00 0.00 0.00 0.00 0.00 0.00 0.00 0.00 0.01 0.06 0.05 0.04 0.01 0.04 0.04 0.03 0.01 0.04 0.08 0.21 0.13 0.12 0.19 0.07 0.06 0.10 0.14 0.17 0.05 0.06 0.01
0.00 0.00 0.00 0.00 0.00 0.00 0.00 0.00 0.00 0.00 0.00 0.00 0.00 0.00 0.00 0.00 0.00 0.00 0.00 0.00 0.00 0.00 0.00 0.00 0.00 0.00 0.02 0.05 0.06 0.05 0.02 0.01 0.01 0.02 0.00 0.09 0.25 0.12 0.16 0.11 0.13 0.12 0.03 0.08 0.10 0.12 0.11 0.04 0.07
0.00 0.00 0.00 0.00 0.00 0.00 0.01 0.00 0.00 0.00 0.00 0.00 0.00 0.00 0.00 0.00 0.00 0.00 0.00 0.00 0.00 0.00 0.00 0.00 0.00 0.00 0.01 0.00 0.00 0.02 0.03 0.05 0.03 0.05 0.00 0.10 0.29 0.30 0.20 0.17 0.16 0.11 0.05 0.07 0.14 0.17 0.14 0.04 0.00
0.00 0.00 0.00 0.00 0.00 0.00 0.00 0.00 0.00 0.00 0.00 0.00 0.00 0.00 0.00 0.00 0.00 0.00 0.00 0.00 0.00 0.00 0.00 0.00 0.01 0.05 0.00 0.01 0.15 0.08 0.10 0.12 0.06 0.05 0.00 0.06 0.22 0.39 0.25 0.25 0.18 0.10 0.06 0.13 0.14 0.13 0.11 0.02 0.00
0.00 0.00 0.00 0.00 0.00 0.00 0.01 0.04 0.00 0.00 0.00 0.00 0.00 0.00 0.00 0.00 0.00 0.00 0.00 0.00 0.00 0.00 0.00 0.00 0.00 0.08 0.03 0.05 0.25 0.09 0.06 0.05 0.01 0.03 0.08 0.30 0.34 0.31 0.33 0.42 0.20 0.12 0.14 0.23 0.17 0.15 0.07 0.00 0.00
0.00 0.00 0.00 0.00 0.00 0.00 0.00 0.01 0.00 0.00 0.00 0.00 0.00 0.00 0.00 0.00 0.00 0.00 0.00 0.00 0.00 0.00 0.00 0.00 0.00 0.00 0.00 0.06 0.09 0.01 0.00 0.02 0.10 0.13 0.14 0.21 0.32 0.23 0.25 0.47 0.22 0.12 0.21 0.23 0.21 0.12 0.08 0.00 0.00
0.00 0.00 0.00 0.00 0.00 0.00 0.00 0.08 0.00 0.00 0.00 0.00 0.00 0.00 0.00 0.00 0.00 0.00 0.00 0.00 0.00 0.00 0.00 0.00 0.00 0.01 0.05 0.07 0.13 0.18 0.16 0.19 0.11 0.05 0.14 0.20 0.20 0.16 0.16 0.26 0.15 0.13 0.19 0.21 0.18 0.09 0.02 0.00 0.00
0.00 0.00 0.00 0.00 0.00 0.00 0.00 0.10 0.02 0.00 0.00 0.00 0.00 0.00 0.00 0.00 0.00 0.00 0.00 0.00 0.00 0.00 0.00 0.00 0.00 0.02 0.13 0.31 0.34 0.23 0.10 0.09 0.04 0.08 0.17 0.12 0.16 0.11 0.15 0.16 0.26 0.15 0.15 0.15 0.13 0.03 0.00 0.00 0.00
0.00 0.00 0.00 0.00 0.00 0.00 0.00 0.01 0.04 0.00 0.00 0.00 0.00 0.00 0.00 0.00 0.00 0.00 0.00 0.00 0.00 0.00 0.00 0.00 0.00 0.01 0.16 0.07 0.04 0.03 0.02 0.02 0.02 0.08 0.05 0.10 0.10 0.11 0.17 0.10 0.15 0.15 0.07 0.05 0.02 0.00 0.00 0.00 0.00
0.00 0.00 0.00 0.00 0.00 0.00 0.00 0.00 0.00 0.00 0.00 0.00 0.00 0.00 0.00 0.00 0.00 0.00 0.00 0.00 0.00 0.00 0.00 0.00 0.00 0.00 0.03 0.03 0.03 0.02 0.01 0.00 0.01 0.02 0.05 0.05 0.03 0.07 0.06 0.06 0.03 0.03 0.04 0.02 0.00 0.00 0.00 0.00 0.00
0.00 0.00 0.00 0.00 0.00 0.00 0.00 0.00 0.00 0.00 0.00 0.00 0.00 0.00 0.00 0.00 0.00 0.00 0.00 0.00 0.00 0.00 0.00 0.00 0.00 0.00 0.00 0.02 0.03 0.08 0.08 0.04 0.02 0.01 0.02 0.01 0.01 0.02 0.02 0.09 0.06 0.03 0.04 0.01 0.00 0.00 0.00 0.01 0.01
0.00 0.00 0.00 0.00 0.00 0.00 0.00 0.00 0.00 0.00 0.00 0.00 0.00 0.00 0.00 0.00 0.00 0.00 0.00 0.00 0.00 0.00 0.00 0.00 0.00 0.00 0.00 0.02 0.02 0.04 0.01 0.01 0.01 0.00 0.00 0.00 0.00 0.00 0.00 0.01 0.03 0.02 0.00 0.01 0.00 0.00 0.00 0.00 0.00
0.00 0.00 0.00 0.00 0.00 0.00 0.00 0.00 0.00 0.00 0.00 0.00 0.00 0.00 0.00 0.00 0.00 0.00 0.00 0.00 0.00 0.00 0.00 0.00 0.00 0.00 0.00 0.00 0.00 0.02 0.00 0.00 0.00 0.00 0.00 0.00 0.00 0.00 0.00 0.00 0.00 0.00 0.00 0.00 0.00 0.00 0.00 0.00 0.00
0.00 0.00 0.00 0.00 0.00 0.00 0.00 0.00 0.00 0.00 0.00 0.00 0.00 0.00 0.00 0.00 0.00 0.00 0.00 0.00 0.00 0.00 0.00 0.00 0.00 0.00 0.00 0.00 0.00 0.01 0.01 0.00 0.00 0.00 0.00 0.00 0.00 0.00 0.00 0.00 0.00 0.00 0.00 0.00 0.00 0.00 0.00 0.00 0.00
0.00 0.00 0.00 0.00 0.00 0.00 0.00 0.00 0.00 0.00 0.00 0.00 0.00 0.00 0.00 0.00 0.00 0.00 0.00 0.00 0.00 0.00 0.00 0.00 0.00 0.00 0.00 0.00 0.00 0.00 0.00 0.00 0.00 0.00 0.00 0.00 0.00 0.00 0.00 0.00 0.00 0.00 0.00 0.00 0.00 0.00 0.00 0.00 0.00
0.00 0.00 0.00 0.00 0.00 0.00 0.00 0.00 0.00 0.00 0.00 0.00 0.00 0.00 0.00 0.00 0.00 0.00 0.00 0.00 0.00 0.00 0.00 0.00 0.00 0.00 0.00 0.00 0.00 0.00 0.00 0.00 0.00 0.00 0.00 0.00 0.00 0.00 0.00 0.00 0.00 0.00 0.00 0.00 0.00 0.00 0.00 0.00 0.00
0.00 0.00 0.00 0.00 0.00 0.00 0.00 0.00 0.00 0.00 0.00 0.00 0.00 0.00 0.00 0.00 0.00 0.00 0.00 0.00 0.00 0.00 0.00 0.00 0.00 0.00 0.00 0.00 0.00 0.00 0.00 0.00 0.00 0.00 0.00 0.00 0.00 0.00 0.00 0.00 0.00 0.00 0.00 0.00 0.00 0.00 0.00 0.00 0.00
0.00 0.00 0.00 0.00 0.00 0.00 0.00 0.00 0.00 0.00 0.00 0.00 0.00 0.00 0.00 0.00 0.00 0.00 0.00 0.00 0.00 0.00 0.00 0.00 0.00 0.00 0.00 0.00 0.00 0.00 0.00 0.00 0.00 0.00 0.00 0.00 0.00 0.00 0.00 0.00 0.00 0.00 0.00 0.00 0.00 0.00 0.00 0.00 0.00
0.00 0.00 0.00 0.00 0.00 0.00 0.00 0.00 0.00 0.00 0.00 0.00 0.00 0.00 0.00 0.00 0.00 0.00 0.00 0.00 0.00 0.00 0.00 0.00 0.00 0.00 0.00 0.00 0.00 0.00 0.00 0.00 0.00 0.00 0.00 0.00 0.00 0.00 0.00 0.00 0.00 0.00 0.00 0.00 0.00 0.00 0.00 0.00 0.00
0.00 0.00 0.00 0.00 0.00 0.00 0.00 0.00 0.00 0.00 0.00 0.00 0.00 0.00 0.00 0.00 0.00 0.00 0.00 0.00 0.00 0.00 0.00 0.00 0.00 0.00 0.00 0.00 0.00 0.00 0.00 0.00 0.00 0.00 0.00 0.00 0.00 0.00 0.00 0.00 0.00 0.00 0.00 0.00 0.00 0.00 0.00 0.00 0.00

GFSSGP_prec_precacc_042.txt.gz
Total_Precipitation_Accumulation
0.00 0.05 0.25 0.57 1.29 0.71 0.45 0.26 0.21 0.10 0.08 0.05 0.02 0.14 0.17 0.14 0.10 0.20 0.14 0.43 0.16 0.09 0.57 1.23 1.20 0.74 0.35 0.25 0.21 0.11 0.08 0.07 0.04 0.02 0.01 0.00 0.01 0.00 0.00 0.00 0.01 0.02 0.03 0.10 0.06 0.09 0.01 0.02 0.10
0.01 0.09 0.55 1.48 1.17 0.61 0.30 0.10 0.15 0.11 0.02 0.01 0.02 0.05 0.05 0.05 0.01 0.04 0.19 0.28 0.06 0.04 0.26 0.61 0.87 0.53 0.25 0.13 0.06 0.06 0.05 0.03 0.03 0.03 0.01 0.01 0.00 0.00 0.01 0.01 0.01 0.01 0.01 0.04 0.02 0.03 0.01 0.05 0.13
0.03 0.21 2.07 1.60 0.51 0.44 0.14 0.10 0.07 0.05 0.02 0.04 0.03 0.08 0.03 0.05 0.02 0.02 0.05 0.04 0.04 0.06 0.13 0.31 0.35 0.32 0.16 0.12 0.04 0.05 0.04 0.02 0.02 0.01 0.01 0.01 0.01 0.00 0.00 0.01 0.03 0.03 0.01 0.01 0.03 0.08 0.04 0.01 0.02
0.19 1.48 2.25 1.12 0.33 0.07 0.05 0.05 0.05 0.01 0.00 0.02 0.03 0.01 0.01 0.02 0.01 0.01 0.05 0.02 0.03 0.08 0.11 0.16 0.20 0.13 0.14 0.09 0.05 0.02 0.00 0.00 0.00 0.01 0.02 0.02 0.00 0.00 0.00 0.01 0.03 0.02 0.01 0.00 0.01 0.02 0.07 0.04 0.06
0.33 0.70 1.12 1.03 0.12 0.03 0.00 0.02 0.06 0.03 0.02 0.00 0.00 0.01 0.04 0.05 0.01 0.01 0.01 0.02 0.04 0.05 0.04 0.06 0.23 0.13 0.07 0.06 0.03 0.02 0.00 0.00 0.00 0.01 0.02 0.02 0.01 0.00 0.00 0.00 0.00 0.02 0.02 0.00 0.00 0.00 0.03 0.04 0.05
1.07 0.57 0.93 0.27 0.03 0.02 0.02 0.00 0.01 0.02 0.01 0.01 0.00 0.01 0.08 0.04 0.01 0.02 0.01 0.02 0.03 0.02 0.01 0.03 0.07 0.07 0.05 0.04 0.02 0.00 0.00 0.01 0.03 0.07 0.09 0.08 0.04 0.00 0.00 0.00 0.00 0.01 0.00 0.00 0.01 0.00 0.00 0.00 0.03
0.33 1.00 0.61 0.07 0.05 0.03 0.03 0.02 0.01 0.00 0.00 0.00 0.00 0.01 0.07 0.05 0.01 0.00 0.00 0.01 0.03 0.02 0.00 0.02 0.03 0.05 0.02 0.04 0.02 0.00 0.02 0.02 0.04 0.08 0.11 0.11 0.06 0.01 0.00 0.04 0.03 0.00 0.00 0.01 0.09 0.06 0.02 0.03 0.08
0.63 0.09 0.26 0.13 0.03 0.02 0.01 0.01 0.00 0.00 0.00 0.00 0.00 0.00 0.03 0.02 0.00 0.00 0.00 0.01 0.02 0.02 0.02 0.01 0.04 0.04 0.06 0.08 0.09 0.02 0.04 0.04 0.03 0.04 0.10 0.13 0.10 0.06 0.03 0.14 0.11 0.03 0.09 0.12 0.12 0.16 0.10 0.10 0.10
0.05 0.08 0.05 0.01 0.02 0.00 0.00 0.00 0.00 0.00 0.00 0.00 0.03 0.00 0.00 0.00 0.00 0.00 0.00 0.01 0.03 0.04 0.02 0.01 0.01 0.06 0.05 0.06 0.06 0.12 0.04 0.02 0.03 0.05 0.12 0.27 0.25 0.09 0.10 0.19 0.11 0.13 0.09 0.16 0.16 0.19 0.23 0.40 0.24
0.03 0.32 0.17 0.02 0.02 0.01 0.00 0.00 0.00 0.00 0.00 0.00 0.00 0.00 0.00 0.00 0.00 0.00 0.00 0.00 0.02 0.01 0.01 0.05 0.04 0.01 0.01 0.03 0.10 0.11 0.10 0.11 0.08 0.13 0.29 0.54 0.16 0.12 0.13 0.12 0.16 0.12 0.10 0.27 0.32 0.37 0.30 0.23 0.10
0.01 0.15 0.27 0.00 0.00 0.01 0.00 0.00 0.00 0.00 0.00 0.00 0.00 0.00 0.00 0.00 0.00 0.00 0.00 0.00 0.00 0.00 0.00 0.00 0.00 0.00 0.01 0.06 0.05 0.04 0.01 0.04 0.07 0.29 0.19 0.31 0.27 0.27 0.18 0.13 0.22 0.36 0.26 0.24 0.19 0.37 0.08 0.08 0.01
0.00 0.03 0.02 0.00 0.00 0.02 0.05 0.06 0.00 0.00 0.00 0.00 0.00 0.00 0.00 0.00 0.00 0.00 0.00 0.00 0.00 0.00 0.00 0.00 0.00 0.00 0.02 0.05 0.06 0.05 0.02 0.01 0.01 0.02 0.02 0.19 0.39 0.34 0.30 0.29 0.25 0.68 0.27 0.10 0.11 0.13 0.11 0.05 0.07
0.00 0.01 0.01 0.02 0.00 0.01 0.08 0.08 0.06 0.00 0.00 0.00 0.00 0.00 0.00 0.00 0.00 0.00 0.00 0.00 0.00 0.00 0.00 0.00 0.00 0.00 0.01 0.00 0.00 0.02 0.03 0.05 0.03 0.05 0.00 0.11 0.36 0.35 0.24 0.21 0.19 0.12 0.13 0.08 0.14 0.17 0.14 0.04 0.00
0.00 0.00 0.01 0.00 0.00 0.00 0.00 0.00 0.00 0.01 0.00 0.00 0.00 0.00 0.00 0.00 0.00 0.00 0.00 0.00 0.00 0.00 0.00 0.00 0.01 0.05 0.00 0.01 0.15 0.08 0.10 0.12 0.06 0.05 0.00 0.06 0.25 0.44 0.27 0.26 0.19 0.11 0.13 0.28 0.14 0.13 0.11 0.03 0.01
0.00 0.00 0.01 0.00 0.00 0.00 0.01 0.04 0.00 0.02 0.00 0.00 0.00 0.00 0.00 0.00 0.00 0.00 0.00 0.00 0.00 0.00 0.00 0.00 0.00 0.08 0.03 0.05 0.25 0.09 0.06 0.05 0.01 0.03 0.08 0.30 0.34 0.38 0.35 0.45 0.21 0.14 0.15 0.23 0.17 0.16 0.14 0.02 0.00
0.00 0.00 0.00 0.00 0.00 0.00 0.00 0.01 0.00 0.00 0.00 0.00 0.00 0.00 0.00 0.00 0.00 0.00 0.00 0.00 0.00 0.00 0.00 0.00 0.00 0.00 0.00 0.06 0.09 0.01 0.00 0.02 0.10 0.13 0.14 0.21 0.32 0.30 0.31 0.69 0.26 0.15 0.21 0.23 0.21 0.13 0.09 0.00 0.00
0.00 0.00 0.00 0.00 0.00 0.00 0.00 0.08 0.00 0.00 0.00 0.00 0.00 0.00 0.00 0.00 0.00 0.00 0.00 0.00 0.00 0.00 0.00 0.00 0.00 0.01 0.05 0.07 0.13 0.18 0.16 0.19 0.11 0.05 0.14 0.20 0.20 0.16 0.20 0.45 0.75 0.21 0.21 0.21 0.18 0.09 0.02 0.00 0.00
0.00 0.00 0.00 0.00 0.00 0.00 0.00 0.10 0.02 0.00 0.00 0.00 0.00 0.00 0.00 0.00 0.00 0.00 0.00 0.00 0.00 0.00 0.00 0.00 0.00 0.02 0.13 0.31 0.34 0.23 0.10 0.09 0.04 0.08 0.17 0.12 0.16 0.12 0.19 0.25 0.39 0.17 0.18 0.16 0.14 0.04 0.00 0.00 0.00
0.00 0.00 0.00 0.00 0.00 0.00 0.00 0.01 0.04 0.00 0.00 0.00 0.00 0.00 0.00 0.00 0.00 0.00 0.00 0.00 0.00 0.00 0.00 0.00 0.00 0.01 0.16 0.07 0.04 0.03 0.02 0.02 0.02 0.08 0.05 0.10 0.10 0.11 0.20 0.17 0.18 0.17 0.08 0.07 0.02 0.01 0.00 0.00 0.00
0.00 0.00 0.00 0.00 0.00 0.00 0.00 0.00 0.00 0.00 0.00 0.00 0.00 0.00 0.00 0.00 0.00 0.00 0.00 0.00 0.00 0.00 0.00 0.00 0.00 0.00 0.03 0.03 0.03 0.02 0.01 0.00 0.01 0.02 0.05 0.05 0.03 0.07 0.12 0.21 0.12 0.09 0.07 0.04 0.01 0.01 0.02 0.00 0.00
0.00 0.00 0.00 0.00 0.00 0.00 0.00 0.00 0.00 0.00 0.00 0.00 0.00 0.00 0.00 0.00 0.00 0.00 0.00 0.00 0.00 0.00 0.00 0.00 0.00 0.00 0.00 0.02 0.03 0.08 0.08 0.04 0.02 0.01 0.02 0.01 0.01 0.03 0.14 0.21 0.12 0.11 0.08 0.12 0.07 0.00 0.00 0.01 0.01
0.00 0.00 0.00 0.00 0.00 0.00 0.00 0.00 0.00 0.00 0.00 0.00 0.00 0.00 0.00 0.00 0.00 0.00 0.00 0.00 0.00 0.00 0.00 0.00 0.00 0.00 0.00 0.02 0.02 0.04 0.01 0.01 0.01 0.00 0.00 0.00 0.00 0.00 0.02 0.06 0.07 0.06 0.04 0.07 0.07 0.00 0.00 0.00 0.00
0.00 0.00 0.00 0.00 0.00 0.00 0.00 0.00 0.00 0.00 0.00 0.00 0.00 0.00 0.00 0.00 0.00 0.00 0.00 0.00 0.00 0.00 0.00 0.00 0.00 0.00 0.00 0.00 0.00 0.02 0.00 0.00 0.00 0.00 0.00 0.00 0.04 0.01 0.00 0.02 0.05 0.05 0.04 0.05 0.03 0.00 0.00 0.00 0.00
0.00 0.00 0.00 0.00 0.00 0.00 0.00 0.00 0.00 0.00 0.00 0.00 0.00 0.00 0.00 0.00 0.00 0.00 0.00 0.00 0.00 0.00 0.00 0.00 0.00 0.00 0.00 0.00 0.00 0.01 0.01 0.00 0.00 0.00 0.00 0.00 0.00 0.00 0.00 0.02 0.06 0.07 0.03 0.02 0.00 0.00 0.00 0.00 0.00
0.00 0.00 0.00 0.00 0.00 0.00 0.00 0.00 0.00 0.00 0.00 0.00 0.00 0.00 0.00 0.00 0.00 0.00 0.00 0.00 0.00 0.00 0.00 0.00 0.00 0.00 0.00 0.00 0.00 0.00 0.00 0.00 0.00 0.00 0.00 0.00 0.00 0.00 0.00 0.00 0.04 0.01 0.01 0.01 0.00 0.01 0.00 0.00 0.00
0.00 0.00 0.00 0.00 0.00 0.00 0.00 0.00 0.00 0.00 0.00 0.00 0.00 0.00 0.00 0.00 0.00 0.00 0.00 0.00 0.00 0.00 0.00 0.00 0.00 0.00 0.00 0.00 0.00 0.00 0.00 0.00 0.00 0.00 0.00 0.00 0.00 0.00 0.00 0.00 0.00 0.00 0.01 0.00 0.01 0.00 0.00 0.00 0.00
0.00 0.00 0.00 0.00 0.00 0.00 0.00 0.00 0.00 0.00 0.00 0.00 0.00 0.00 0.00 0.00 0.00 0.00 0.00 0.00 0.00 0.00 0.00 0.00 0.00 0.00 0.00 0.00 0.00 0.00 0.00 0.00 0.00 0.00 0.00 0.00 0.00 0.00 0.00 0.00 0.00 0.00 0.00 0.00 0.00 0.00 0.00 0.00 0.00
0.00 0.00 0.00 0.00 0.00 0.00 0.00 0.00 0.00 0.00 0.00 0.00 0.00 0.00 0.00 0.00 0.00 0.00 0.00 0.00 0.00 0.00 0.00 0.00 0.00 0.00 0.00 0.00 0.00 0.00 0.00 0.00 0.00 0.00 0.00 0.00 0.00 0.00 0.00 0.00 0.00 0.00 0.00 0.00 0.00 0.00 0.00 0.00 0.00
0.00 0.00 0.00 0.00 0.00 0.00 0.00 0.00 0.00 0.00 0.00 0.00 0.00 0.00 0.00 0.00 0.00 0.00 0.00 0.00 0.00 0.00 0.00 0.00 0.00 0.00 0.00 0.00 0.00 0.00 0.00 0.00 0.00 0.00 0.00 0.00 0.00 0.00 0.00 0.01 0.00 0.00 0.00 0.00 0.00 0.00 0.00 0.00 0.00
0.00 0.00 0.00 0.00 0.00 0.00 0.00 0.00 0.00 0.00 0.00 0.00 0.00 0.00 0.00 0.00 0.00 0.00 0.00 0.00 0.00 0.00 0.00 0.00 0.00 0.00 0.00 0.00 0.00 0.00 0.00 0.00 0.00 0.00 0.00 0.00 0.00 0.00 0.00 0.00 0.00 0.00 0.00 0.00 0.00 0.00 0.00 0.00 0.00

GFSSGP_prec_precacc_045.txt.gz
Total_Precipitation_Accumulation
0.00 0.05 0.26 0.61 1.45 0.84 0.54 0.33 0.24 0.13 0.08 0.06 0.02 0.14 0.17 0.14 0.11 0.23 0.14 0.43 0.16 0.09 0.57 1.23 1.22 0.75 0.35 0.25 0.21 0.12 0.08 0.07 0.05 0.02 0.01 0.01 0.01 0.00 0.00 0.00 0.01 0.02 0.03 0.10 0.06 0.09 0.01 0.02 0.10
0.01 0.09 0.65 1.63 1.39 0.82 0.35 0.11 0.16 0.11 0.02 0.01 0.02 0.05 0.05 0.05 0.01 0.04 0.20 0.28 0.06 0.04 0.26 0.61 0.89 0.55 0.25 0.14 0.07 0.07 0.06 0.03 0.03 0.03 0.01 0.01 0.00 0.00 0.01 0.01 0.01 0.02 0.02 0.04 0.02 0.03 0.01 0.05 0.13
0.03 0.24 2.19 2.06 0.88 0.62 0.18 0.10 0.08 0.05 0.02 0.04 0.03 0.08 0.03 0.05 0.02 0.02 0.05 0.04 0.04 0.06 0.13 0.31 0.36 0.32 0.17 0.12 0.04 0.06 0.04 0.02 0.02 0.01 0.01 0.01 0.01 0.00 0.00 0.01 0.03 0.03 0.01 0.01 0.03 0.08 0.04 0.01 0.02
0.21 1.62 2.41 1.50 0.70 0.14 0.08 0.09 0.06 0.01 0.00 0.02 0.03 0.01 0.01 0.02 0.01 0.01 0.05 0.02 0.03 0.08 0.11 0.16 0.20 0.14 0.15 0.09 0.05 0.02 0.00 0.00 0.00 0.01 0.02 0.02 0.00 0.00 0.00 0.01 0.03 0.02 0.01 0.00 0.01 0.02 0.07 0.04 0.06
0.42 0.83 1.27 1.24 0.29 0.08 0.04 0.03 0.06 0.03 0.02 0.00 0.00 0.01 0.04 0.05 0.01 0.01 0.01 0.02 0.04 0.05 0.05 0.07 0.26 0.16 0.07 0.07 0.03 0.02 0.00 0.00 0.00 0.01 0.02 0.02 0.01 0.00 0.00 0.00 0.00 0.02 0.02 0.00 0.00 0.00 0.03 0.04 0.05
1.19 0.63 0.94 0.32 0.06 0.05 0.04 0.02 0.02 0.02 0.01 0.01 0.00 0.01 0.09 0.04 0.01 0.02 0.01 0.02 0.03 0.02 0.01 0.03 0.08 0.07 0.05 0.04 0.02 0.00 0.00 0.01 0.03 0.07 0.09 0.08 0.04 0.00 0.00 0.00 0.00 0.01 0.00 0.00 0.01 0.00 0.00 0.00 0.03
0.51 1.36 1.55 0.31 0.10 0.07 0.03 0.02 0.01 0.00 0.00 0.00 0.00 0.01 0.08 0.06 0.01 0.00 0.00 0.01 0.03 0.02 0.00 0.02 0.03 0.05 0.02 0.04 0.02 0.00 0.02 0.02 0.04 0.08 0.11 0.11 0.06 0.01 0.00 0.04 0.03 0.00 0.00 0.01 0.09 0.06 0.02 0.03 0.08
0.70 0.69 2.02 0.63 0.16 0.11 0.02 0.01 0.02 0.00 0.00 0.00 0.00 0.00 0.03 0.02 0.00 0.00 0.00 0.01 0.02 0.02 0.02 0.01 0.04 0.04 0.06 0.08 0.09 0.02 0.04 0.04 0.03 0.04 0.10 0.13 0.10 0.06 0.03 0.14 0.11 0.03 0.09 0.12 0.12 0.16 0.10 0.10 0.10
0.08 0.38 0.42 0.30 0.03 0.03 0.03 0.01 0.01 0.00 0.00 0.01 0.04 0.00 0.00 0.00 0.00 0.00 0.00 0.02 0.04 0.05 0.02 0.01 0.01 0.06 0.05 0.06 0.06 0.12 0.04 0.02 0.03 0.05 0.13 0.29 0.29 0.13 0.14 0.21 0.12 0.13 0.09 0.16 0.16 0.19 0.23 0.40 0.24
0.04 0.45 0.29 0.03 0.02 0.02 0.02 0.01 0.00 0.00 0.00 0.01 0.00 0.00 0.00 0.00 0.00 0.00 0.00 0.00 0.02 0.01 0.01 0.05 0.04 0.01 0.01 0.03 0.10 0.11 0.10 0.11 0.08 0.14 0.30 0.63 0.32 0.24 0.18 0.13 0.17 0.12 0.10 0.27 0.32 0.37 0.30 0.23 0.10
0.02 0.23 0.31 0.01 0.00 0.01 0.01 0.00 0.00 0.00 0.00 0.00 0.00 0.00 0.00 0.00 0.00 0.00 0.00 0.00 0.00 0.00 0.00 0.00 0.00 0.00 0.01 0.06 0.05 0.04 0.01 0.04 0.08 0.30 0.28 0.55 0.36 0.38 0.29 0.16 0.23 0.36 0.26 0.24 0.20 0.41 0.08 0.08 0.01
0.00 0.05 0.06 0.00 0.01 0.05 0.07 0.07 0.00 0.00 0.00 0.00 0.00 0.00 0.00 0.00 0.00 0.00 0.00 0.00 0.00 0.00 0.00 0.00 0.00 0.00 0.02 0.05 0.06 0.05 0.02 0.01 0.03 0.07 0.11 0.39 0.54 0.54 0.36 0.32 0.31 0.72 0.32 0.11 0.11 0.13 0.11 0.05 0.07
0.00 0.01 0.02 0.04 0.00 0.02 0.11 0.08 0.06 0.00 0.00 0.00 0.00 0.00 0.00 0.00 0.00 0.00 0.00 0.00 0.00 0.00 0.00 0.00 0.00 0.00 0.01 0.00 0.00 0.02 0.03 0.05 0.03 0.06 0.02 0.21 0.51 0.43 0.26 0.22 0.21 0.18 0.16 0.12 0.15 0.17 0.14 0.04 0.00
0.00 0.00 0.01 0.01 0.02 0.01 0.00 0.00 0.00 0.02 0.00 0.00 0.00 0.00 0.00 0.00 0.00 0.00 0.00 0.00 0.00 0.00 0.00 0.00 0.01 0.05 0.00 0.01 0.15 0.08 0.10 0.12 0.06 0.05 0.02 0.14 0.44 0.53 0.31 0.29 0.22 0.20 0.15 0.30 0.14 0.13 0.11 0.03 0.01
0.00 0.00 0.01 0.01 0.02 0.01 0.02 0.04 0.00 0.04 0.01 0.00 0.00 0.00 0.00 0.00 0.00 0.00 0.00 0.00 0.00 0.00 0.00 0.00 0.00 0.08 0.03 0.05 0.25 0.09 0.06 0.05 0.02 0.03 0.08 0.30 0.35 0.45 0.44 0.49 0.25 0.19 0.17 0.23 0.17 0.16 0.14 0.03 0.00
0.00 0.00 0.00 0.00 0.01 0.00 0.00 0.01 0.00 0.00 0.00 0.00 0.00 0.00 0.00 0.00 0.00 0.00 0.00 0.00 0.00 0.00 0.00 0.00 0.00 0.00 0.00 0.06 0.09 0.01 0.00 0.02 0.10 0.13 0.14 0.21 0.32 0.32 0.33 0.73 0.29 0.22 0.25 0.24 0.21 0.13 0.09 0.00 0.00
0.00 0.00 0.00 0.00 0.00 0.00 0.00 0.08 0.00 0.00 0.00 0.00 0.00 0.00 0.00 0.00 0.00 0.00 0.00 0.00 0.00 0.00 0.00 0.00 0.00 0.01 0.05 0.07 0.13 0.18 0.16 0.19 0.11 0.05 0.14 0.20 0.20 0.17 0.21 0.47 0.76 0.21 0.22 0.22 0.18 0.09 0.02 0.00 0.00
0.00 0.00 0.00 0.00 0.00 0.00 0.00 0.10 0.02 0.00 0.00 0.02 0.01 0.00 0.00 0.00 0.00 0.00 0.00 0.00 0.00 0.00 0.00 0.00 0.00 0.02 0.13 0.31 0.34 0.23 0.10 0.09 0.04 0.08 0.17 0.12 0.16 0.12 0.19 0.26 0.39 0.19 0.19 0.16 0.14 0.04 0.00 0.00 0.00
0.00 0.00 0.00 0.00 0.00 0.00 0.00 0.01 0.04 0.00 0.01 0.19 0.13 0.00 0.00 0.00 0.00 0.00 0.00 0.00 0.00 0.00 0.00 0.00 0.00 0.01 0.16 0.07 0.04 0.03 0.02 0.02 0.02 0.08 0.05 0.10 0.10 0.11 0.20 0.18 0.21 0.20 0.08 0.07 0.02 0.01 0.00 0.00 0.00
0.00 0.00 0.00 0.00 0.00 0.00 0.00 0.00 0.00 0.00 0.00 0.01 0.15 0.09 0.02 0.00 0.00 0.00 0.00 0.00 0.00 0.00 0.00 0.00 0.00 0.00 0.03 0.03 0.03 0.02 0.01 0.00 0.01 0.02 0.05 0.05 0.03 0.07 0.12 0.24 0.14 0.17 0.08 0.05 0.01 0.01 0.02 0.00 0.00
0.00 0.00 0.00 0.00 0.00 0.00 0.00 0.00 0.00 0.00 0.00 0.00 0.04 0.05 0.02 0.00 0.00 0.00 0.00 0.00 0.00 0.00 0.00 0.00 0.00 0.00 0.00 0.02 0.03 0.08 0.08 0.04 0.02 0.01 0.02 0.01 0.01 0.03 0.15 0.23 0.13 0.13 0.09 0.13 0.07 0.00 0.00 0.01 0.01
0.00 0.00 0.00 0.00 0.00 0.00 0.00 0.00 0.00 0.00 0.00 0.00 0.01 0.05 0.01 0.01 0.01 0.00 0.00 0.00 0.00 0.00 0.00 0.00 0.00 0.00 0.00 0.02 0.02 0.04 0.01 0.01 0.01 0.00 0.00 0.00 0.00 0.00 0.02 0.07 0.08 0.06 0.05 0.07 0.07 0.00 0.00 0.00 0.00
0.00 0.00 0.00 0.00 0.00 0.00 0.00 0.00 0.00 0.00 0.00 0.00 0.00 0.01 0.01 0.01 0.01 0.00 0.00 0.00 0.00 0.00 0.00 0.00 0.00 0.00 0.00 0.00 0.00 0.02 0.00 0.00 0.00 0.00 0.00 0.00 0.04 0.01 0.01 0.02 0.05 0.05 0.04 0.05 0.03 0.00 0.00 0.00 0.00
0.00 0.00 0.00 0.00 0.00 0.00 0.00 0.00 0.00 0.00 0.00 0.00 0.00 0.00 0.00 0.01 0.01 0.00 0.00 0.00 0.00 0.00 0.00 0.00 0.00 0.00 0.00 0.00 0.00 0.01 0.01 0.00 0.00 0.00 0.00 0.00 0.00 0.00 0.00 0.02 0.06 0.07 0.04 0.02 0.00 0.00 0.00 0.00 0.00
0.00 0.00 0.00 0.00 0.00 0.00 0.00 0.00 0.00 0.00 0.00 0.00 0.00 0.00 0.00 0.00 0.00 0.00 0.00 0.00 0.00 0.00 0.00 0.00 0.00 0.00 0.00 0.00 0.00 0.00 0.00 0.00 0.00 0.00 0.00 0.00 0.00 0.00 0.00 0.00 0.04 0.01 0.01 0.01 0.01 0.01 0.00 0.00 0.00
0.00 0.00 0.00 0.00 0.00 0.00 0.00 0.00 0.00 0.00 0.00 0.00 0.00 0.00 0.00 0.00 0.00 0.00 0.00 0.00 0.00 0.00 0.00 0.00 0.00 0.00 0.00 0.00 0.00 0.00 0.00 0.00 0.00 0.00 0.00 0.00 0.00 0.00 0.00 0.00 0.00 0.00 0.01 0.00 0.01 0.00 0.00 0.00 0.00
0.00 0.00 0.00 0.00 0.00 0.00 0.00 0.00 0.00 0.00 0.00 0.00 0.00 0.00 0.00 0.00 0.00 0.00 0.00 0.00 0.00 0.00 0.00 0.00 0.00 0.00 0.00 0.00 0.00 0.00 0.00 0.00 0.00 0.00 0.00 0.00 0.00 0.00 0.00 0.00 0.00 0.00 0.00 0.00 0.00 0.00 0.00 0.00 0.00
0.00 0.00 0.00 0.00 0.00 0.00 0.00 0.00 0.00 0.00 0.00 0.00 0.00 0.00 0.00 0.00 0.00 0.00 0.00 0.00 0.00 0.00 0.00 0.00 0.00 0.00 0.00 0.00 0.00 0.00 0.00 0.00 0.00 0.00 0.00 0.00 0.00 0.00 0.00 0.00 0.00 0.00 0.00 0.00 0.00 0.00 0.00 0.00 0.00
0.00 0.00 0.00 0.00 0.00 0.00 0.00 0.00 0.00 0.00 0.00 0.00 0.00 0.00 0.00 0.00 0.00 0.00 0.00 0.00 0.00 0.00 0.00 0.00 0.00 0.00 0.00 0.00 0.00 0.00 0.00 0.00 0.00 0.00 0.00 0.00 0.00 0.00 0.00 0.01 0.00 0.00 0.00 0.00 0.00 0.00 0.00 0.00 0.00
0.00 0.00 0.00 0.00 0.00 0.00 0.00 0.00 0.00 0.00 0.00 0.00 0.00 0.00 0.00 0.00 0.00 0.00 0.00 0.00 0.00 0.00 0.00 0.00 0.00 0.00 0.00 0.00 0.00 0.00 0.00 0.00 0.00 0.00 0.00 0.00 0.00 0.00 0.00 0.00 0.00 0.00 0.00 0.00 0.00 0.00 0.00 0.00 0.00

GFSSGP_prec_precacc_048.txt.gz
Total_Precipitation_Accumulation
0.00 0.05 0.26 0.61 1.51 0.88 0.59 0.36 0.26 0.15 0.12 0.07 0.02 0.14 0.17 0.14 0.12 0.23 0.14 0.43 0.16 0.09 0.57 1.25 1.23 0.75 0.35 0.25 0.21 0.12 0.08 0.07 0.05 0.02 0.01 0.01 0.01 0.00 0.00 0.00 0.01 0.03 0.03 0.10 0.06 0.09 0.01 0.02 0.10
0.01 0.09 0.68 1.68 1.55 1.30 0.50 0.13 0.19 0.12 0.02 0.01 0.02 0.05 0.05 0.05 0.01 0.05 0.20 0.28 0.06 0.04 0.26 0.61 0.89 0.55 0.25 0.14 0.07 0.07 0.06 0.03 0.03 0.03 0.01 0.02 0.01 0.00 0.01 0.02 0.02 0.02 0.02 0.04 0.02 0.03 0.04 0.06 0.13
0.04 0.25 2.29 2.23 1.07 0.78 0.25 0.12 0.10 0.05 0.02 0.04 0.04 0.08 0.03 0.05 0.02 0.02 0.05 0.04 0.04 0.06 0.13 0.31 0.36 0.32 0.17 0.12 0.04 0.06 0.04 0.02 0.02 0.01 0.01 0.01 0.02 0.00 0.00 0.01 0.03 0.03 0.01 0.01 0.03 0.08 0.04 0.01 0.02
0.22 1.65 2.57 2.04 0.97 0.22 0.14 0.13 0.07 0.01 0.00 0.02 0.03 0.01 0.01 0.02 0.01 0.01 0.05 0.02 0.03 0.08 0.11 0.16 0.20 0.14 0.15 0.09 0.05 0.02 0.00 0.00 0.00 0.01 0.03 0.03 0.01 0.00 0.00 0.01 0.03 0.02 0.01 0.00 0.01 0.02 0.07 0.04 0.06
0.48 0.88 1.29 1.29 0.40 0.14 0.13 0.12 0.07 0.03 0.02 0.00 0.00 0.01 0.05 0.05 0.01 0.01 0.01 0.02 0.04 0.05 0.05 0.07 0.28 0.16 0.08 0.07 0.03 0.02 0.01 0.00 0.00 0.01 0.03 0.03 0.01 0.00 0.00 0.00 0.00 0.02 0.02 0.00 0.00 0.00 0.03 0.04 0.06
1.36 0.64 0.95 0.34 0.11 0.08 0.16 0.34 0.07 0.03 0.01 0.01 0.00 0.01 0.09 0.04 0.01 0.02 0.01 0.02 0.03 0.02 0.01 0.03 0.08 0.08 0.05 0.04 0.02 0.00 0.00 0.01 0.03 0.07 0.09 0.08 0.04 0.00 0.00 0.00 0.00 0.01 0.00 0.00 0.01 0.00 0.00 0.00 0.04
0.57 1.37 1.61 0.35 0.15 0.17 0.11 0.30 0.03 0.00 0.00 0.00 0.00 0.01 0.08 0.06 0.01 0.00 0.00 0.01 0.03 0.02 0.00 0.02 0.03 0.05 0.02 0.04 0.02 0.00 0.02 0.02 0.04 0.08 0.11 0.11 0.06 0.01 0.00 0.04 0.04 0.00 0.00 0.01 0.09 0.06 0.02 0.05 0.10
0.78 0.71 2.30 0.96 0.77 0.30 0.10 0.06 0.03 0.01 0.00 0.00 0.00 0.00 0.04 0.02 0.00 0.00 0.00 0.01 0.02 0.02 0.02 0.01 0.04 0.04 0.06 0.08 0.09 0.02 0.04 0.04 0.03 0.04 0.10 0.13 0.10 0.06 0.03 0.15 0.11 0.03 0.09 0.12 0.12 0.16 0.10 0.11 0.12
0.20 0.52 0.72 0.43 0.12 0.12 0.18 0.13 0.07 0.01 0.00 0.02 0.04 0.00 0.00 0.00 0.00 0.00 0.00 0.02 0.04 0.05 0.02 0.01 0.01 0.06 0.05 0.06 0.06 0.12 0.04 0.02 0.03 0.06 0.14 0.29 0.29 0.13 0.14 0.21 0.13 0.13 0.09 0.16 0.16 0.19 0.23 0.41 0.25
0.14 0.52 0.30 0.03 0.02 0.03 0.09 0.12 0.01 0.00 0.00 0.01 0.00 0.00 0.00 0.00 0.00 0.00 0.00 0.01 0.02 0.01 0.01 0.05 0.04 0.01 0.01 0.03 0.10 0.11 0.10 0.11 0.08 0.14 0.30 0.63 0.32 0.24 0.19 0.14 0.18 0.12 0.10 0.27 0.32 0.37 0.30 0.23 0.10
0.08 0.25 0.31 0.01 0.00 0.01 0.01 0.00 0.03 0.00 0.00 0.00 0.00 0.00 0.00 0.00 0.00 0.00 0.00 0.00 0.00 0.00 0.00 0.00 0.00 0.00 0.01 0.06 0.05 0.04 0.01 0.04 0.08 0.30 0.28 0.55 0.37 0.38 0.29 0.16 0.23 0.37 0.27 0.29 0.20 0.41 0.08 0.08 0.01
0.01 0.05 0.06 0.01 0.01 0.06 0.07 0.07 0.00 0.00 0.00 0.00 0.00 0.00 0.00 0.00 0.00 0.00 0.00 0.00 0.00 0.00 0.00 0.00 0.00 0.00 0.02 0.05 0.06 0.05 0.02 0.01 0.03 0.08 0.11 0.39 0.54 0.54 0.36 0.32 0.31 0.72 0.34 0.13 0.11 0.13 0.11 0.05 0.07
0.00 0.01 0.02 0.04 0.00 0.02 0.11 0.08 0.06 0.00 0.00 0.00 0.00 0.00 0.00 0.00 0.00 0.00 0.00 0.00 0.00 0.00 0.00 0.00 0.00 0.00 0.01 0.00 0.00 0.02 0.03 0.05 0.03 0.07 0.02 0.22 0.51 0.43 0.27 0.22 0.23 0.20 0.17 0.13 0.15 0.17 0.14 0.04 0.00
0.00 0.00 0.01 0.02 0.02 0.01 0.00 0.01 0.01 0.02 0.00 0.00 0.00 0.00 0.00 0.00 0.00 0.00 0.00 0.00 0.00 0.00 0.00 0.00 0.01 0.05 0.00 0.01 0.15 0.08 0.10 0.12 0.06 0.05 0.02 0.14 0.44 0.53 0.31 0.31 0.26 0.24 0.15 0.30 0.14 0.13 0.11 0.04 0.01
0.00 0.00 0.01 0.01 0.04 0.02 0.02 0.04 0.00 0.04 0.01 0.00 0.00 0.00 0.00 0.00 0.00 0.00 0.00 0.00 0.00 0.00 0.00 0.00 0.00 0.08 0.03 0.05 0.25 0.09 0.06 0.05 0.02 0.03 0.08 0.30 0.35 0.47 0.46 0.49 0.25 0.19 0.17 0.23 0.17 0.16 0.14 0.03 0.00
0.00 0.00 0.00 0.00 0.02 0.02 0.01 0.01 0.00 0.00 0.00 0.00 0.00 0.00 0.00 0.00 0.00 0.00 0.00 0.00 0.00 0.00 0.00 0.00 0.00 0.00 0.00 0.06 0.09 0.01 0.00 0.02 0.10 0.13 0.14 0.21 0.33 0.33 0.33 0.73 0.32 0.22 0.25 0.24 0.21 0.13 0.09 0.00 0.00
0.00 0.00 0.00 0.00 0.00 0.01 0.01 0.08 0.00 0.00 0.00 0.00 0.00 0.00 0.00 0.00 0.00 0.00 0.00 0.00 0.00 0.00 0.00 0.00 0.00 0.01 0.05 0.07 0.13 0.18 0.16 0.19 0.11 0.05 0.14 0.20 0.20 0.18 0.22 0.47 0.77 0.21 0.22 0.22 0.18 0.09 0.02 0.00 0.00
0.00 0.00 0.00 0.00 0.00 0.01 0.00 0.10 0.02 0.00 0.00 0.02 0.01 0.00 0.00 0.00 0.00 0.00 0.00 0.00 0.00 0.00 0.00 0.00 0.00 0.02 0.13 0.31 0.34 0.23 0.10 0.09 0.04 0.08 0.17 0.12 0.16 0.12 0.19 0.26 0.40 0.20 0.19 0.16 0.14 0.04 0.00 0.00 0.00
0.00 0.00 0.00 0.00 0.00 0.00 0.00 0.01 0.04 0.00 0.01 0.19 0.13 0.01 0.00 0.00 0.00 0.00 0.00 0.00 0.00 0.00 0.00 0.00 0.00 0.01 0.16 0.07 0.04 0.03 0.02 0.02 0.02 0.08 0.05 0.10 0.10 0.11 0.20 0.19 0.26 0.22 0.09 0.07 0.03 0.01 0.00 0.00 0.00
0.00 0.00 0.00 0.00 0.00 0.00 0.00 0.00 0.00 0.00 0.00 0.01 0.16 0.09 0.03 0.00 0.00 0.00 0.00 0.00 0.00 0.00 0.00 0.00 0.00 0.00 0.03 0.03 0.03 0.02 0.01 0.00 0.01 0.02 0.05 0.05 0.03 0.07 0.12 0.24 0.15 0.19 0.09 0.05 0.01 0.01 0.02 0.00 0.00
0.00 0.00 0.00 0.00 0.00 0.00 0.00 0.00 0.00 0.00 0.00 0.01 0.04 0.06 0.02 0.00 0.00 0.00 0.00 0.00 0.00 0.00 0.00 0.00 0.00 0.00 0.00 0.02 0.03 0.08 0.08 0.04 0.02 0.01 0.02 0.01 0.01 0.03 0.15 0.23 0.13 0.13 0.09 0.13 0.07 0.00 0.00 0.01 0.01
0.00 0.00 0.00 0.00 0.00 0.00 0.00 0.00 0.00 0.00 0.00 0.00 0.01 0.05 0.01 0.01 0.01 0.00 0.00 0.00 0.00 0.00 0.00 0.00 0.00 0.00 0.00 0.02 0.02 0.04 0.01 0.01 0.01 0.00 0.00 0.00 0.00 0.00 0.02 0.07 0.08 0.06 0.05 0.09 0.07 0.00 0.00 0.00 0.00
0.00 0.00 0.00 0.00 0.00 0.00 0.00 0.00 0.00 0.00 0.00 0.00 0.00 0.01 0.01 0.01 0.01 0.00 0.00 0.00 0.00 0.00 0.00 0.00 0.00 0.00 0.00 0.00 0.00 0.02 0.00 0.00 0.00 0.00 0.00 0.00 0.04 0.01 0.01 0.02 0.05 0.05 0.04 0.05 0.03 0.00 0.00 0.00 0.00
0.00 0.00 0.00 0.00 0.00 0.00 0.00 0.00 0.00 0.00 0.00 0.00 0.00 0.00 0.00 0.01 0.01 0.00 0.00 0.00 0.00 0.00 0.00 0.00 0.00 0.00 0.00 0.00 0.00 0.01 0.01 0.00 0.00 0.00 0.00 0.00 0.00 0.00 0.00 0.02 0.06 0.07 0.04 0.02 0.00 0.00 0.00 0.00 0.00
0.00 0.00 0.00 0.00 0.00 0.00 0.00 0.00 0.00 0.00 0.00 0.00 0.00 0.00 0.00 0.00 0.00 0.00 0.00 0.00 0.00 0.00 0.00 0.00 0.00 0.00 0.00 0.00 0.00 0.00 0.00 0.00 0.00 0.00 0.00 0.00 0.00 0.00 0.00 0.01 0.04 0.01 0.01 0.01 0.01 0.01 0.00 0.00 0.00
0.00 0.00 0.00 0.00 0.00 0.00 0.00 0.00 0.00 0.00 0.00 0.00 0.00 0.00 0.00 0.00 0.00 0.00 0.00 0.00 0.00 0.00 0.00 0.00 0.00 0.00 0.00 0.00 0.00 0.00 0.00 0.00 0.00 0.00 0.00 0.00 0.00 0.00 0.00 0.00 0.00 0.00 0.01 0.00 0.01 0.00 0.00 0.00 0.00
0.00 0.00 0.00 0.00 0.00 0.00 0.00 0.00 0.00 0.00 0.00 0.00 0.00 0.00 0.00 0.00 0.00 0.00 0.00 0.00 0.00 0.00 0.00 0.00 0.00 0.00 0.00 0.00 0.00 0.00 0.00 0.00 0.00 0.00 0.00 0.00 0.00 0.00 0.00 0.00 0.00 0.00 0.00 0.00 0.00 0.00 0.00 0.00 0.00
0.00 0.00 0.00 0.00 0.00 0.00 0.00 0.00 0.00 0.00 0.00 0.00 0.00 0.00 0.00 0.00 0.00 0.00 0.00 0.00 0.00 0.00 0.00 0.00 0.00 0.00 0.00 0.00 0.00 0.00 0.00 0.00 0.00 0.00 0.00 0.00 0.00 0.00 0.00 0.00 0.00 0.00 0.00 0.00 0.00 0.00 0.00 0.00 0.00
0.00 0.00 0.00 0.00 0.00 0.00 0.00 0.00 0.00 0.00 0.00 0.00 0.00 0.00 0.00 0.00 0.00 0.00 0.00 0.00 0.00 0.00 0.00 0.00 0.00 0.00 0.00 0.00 0.00 0.00 0.00 0.00 0.00 0.00 0.00 0.00 0.00 0.00 0.00 0.01 0.00 0.00 0.00 0.00 0.00 0.00 0.00 0.00 0.00
0.00 0.00 0.00 0.00 0.00 0.00 0.00 0.00 0.00 0.00 0.00 0.00 0.00 0.00 0.00 0.00 0.00 0.00 0.00 0.00 0.00 0.00 0.00 0.00 0.00 0.00 0.00 0.00 0.00 0.00 0.00 0.00 0.00 0.00 0.00 0.00 0.00 0.00 0.00 0.00 0.00 0.00 0.00 0.00 0.00 0.00 0.00 0.00 0.00